Hourly Data Report for October 18, 2017

All times are specified in Local Standard Time (LST). Add 1 hour to adjust for Daylight Saving Time where and when it is observed.

KITCHENER/WATERLOO
ONTARIO

43°27'39.000" N
80°22'43.000" W
321.60 m
6144239
71368
YKF

Download Data

Hourly Data (October 2017)
Hourly Data Report for October 18, 2017
Temp Definition
°C
Dew Point Temp Definition
°C
Rel Hum Definition
%
Wind Dir Definition
10's deg

Wind Spd Definition
km/h
Visibility Definition
km
Stn Press Definition
kPa
Hmdx Definition


Wind Chill Definition


Weather Definition


TIME
00:00 Legend Double Dagger 10.2 6.2 76 24 11 16.1 98.32     LegendNANA
01:00 Legend Double Dagger 9.5 6.0 79 24 9 16.1 98.35     LegendNANA
02:00 Legend Double Dagger 9.1 6.1 81 24 11 16.1 98.37     LegendNANA
03:00 Legend Double Dagger 9.5 5.9 78 24 8 16.1 98.40     LegendNANA
04:00 Legend Double Dagger 8.4 5.8 84 20 5 16.1 98.43     LegendNANA
05:00 Legend Double Dagger 8.4 5.9 84 21 5 16.1 98.49     LegendNANA
06:00 Legend Double Dagger 9.2 5.6 78 22 5 16.1 98.50     LegendNANA
07:00 Legend Double Dagger 9.1 5.6 79 21 8 16.1 98.52     LegendNANA
08:00 Legend Double Dagger 11.4 6.8 73 21 5 16.1 98.56     LegendNANA
09:00 Legend Double Dagger 13.9 6.8 62 23 13 16.1 98.57     LegendNANA
10:00 Legend Double Dagger 15.7 7.6 58 21 15 16.1 98.58     LegendNANA
11:00 Legend Double Dagger 17.7 7.1 49 21 18 16.1 98.57     LegendNANA
12:00 Legend Double Dagger 18.7 5.9 43 21 26 16.1 98.47     LegendNANA
13:00 Legend Double Dagger 19.7 6.1 41 19 34 16.1 98.37     LegendNANA
14:00 Legend Double Dagger 19.6 6.8 43 20 30 16.1 98.33     LegendNANA
15:00 Legend Double Dagger 19.4 6.2 42 22 30 16.1 98.30     LegendNANA
16:00 Legend Double Dagger 18.1 5.7 44 20 24 16.1 98.28     LegendNANA
17:00 Legend Double Dagger 16.1 5.2 48 21 28 16.1 98.27     LegendNANA
18:00 Legend Double Dagger 14.0 5.6 57 20 15 16.1 98.25     LegendNANA
19:00 Legend Double Dagger 12.7 6.4 65 19 15 16.1 98.21     LegendNANA
20:00 Legend Double Dagger 11.8 7.0 72 19 15 16.1 98.17     LegendNANA
21:00 Legend Double Dagger 11.3 7.6 78 19 17 16.1 98.12     LegendNANA
22:00 Legend Double Dagger 11.1 8.7 85 19 17 16.1 98.10     LegendNANA
23:00 Legend Double Dagger 11.3 9.6 89 20 17 16.1 98.08     LegendNANA

Notes on Data Quality.

Legend

  • E = Estimated
  • M = Missing
  • NA = Not Available
  • ‡ = Partner data that is not subject to review by the National Climate Archives
Date modified: